Weather History for KCHS - October, 2013

Change the Weather History Date:

Tuesday, October 22, 2013

  Actual Average Record
Temperature  
Mean Temperature 67 °F 65 °F  
Max Temperature 71 °F 76 °F 87 °F (1939)
Min Temperature 62 °F 55 °F 33 °F (1974)
Degree Days  
Heating Degree Days 0 3  
Month to date heating degree days 0 34  
Since 1 July heating degree days 0 37  
Cooling Degree Days 2 3  
Month to date cooling degree days 160 105  
Year to date cooling degree days 2388 2243  
Growing Degree Days 16 (Base 50)    
Moisture  
Dew Point 58 °F    
Average Humidity 72    
Maximum Humidity 87    
Minimum Humidity 57    
Precipitation  
Precipitation 0.01 in 0.11 in 0.90 in (2006)
Month to date precipitation 1.37 2.91  
Year to date precipitation 52.44 44.65  
Sea Level Pressure  
Sea Level Pressure 29.94 in    
Wind  
Wind Speed 3 mph (NE)    
Max Wind Speed 12 mph    
Max Gust Speed 13 mph    
Visibility 10 miles    
Events Rain    
T = Trace of Precipitation, MM = Missing Value Source: NWS Daily Summary

Daily Weather History Graph

Daily Weather History Graph

Search for Another Location

Airport or City:

Trip Planner

Search our weather history database for the weather conditions in past years. The results will help you decide how hot, cold, wet, or windy it might be!

Date:

Astronomy

Oct. 22, 2013 Rise Set
Actual Time 7:29 AM EDT 6:38 PM EDT
Civil Twilight 7:04 AM EDT 7:03 PM EDT
Nautical Twilight 6:35 AM EDT 7:32 PM EDT
Astronomical Twilight 6:07 AM EDT 8:01 PM EDT
Moon 9:25 PM EDT (10/22) 10:48 AM EDT (10/22)
Length of Visible Light 11h 58m
Length of Day
11h 08m
Waning Gibbous, 87% of the Moon is Illuminated
Oct 22
Waning Gibbous
Oct 26
Last Quarter
Nov 3
New
Nov 10
First Quarter
Nov 17
Full

Hourly Weather History & Observations

Time (EDT) Temp. Dew Point Humidity Pressure Visibility Wind Dir Wind Speed Gust Speed Precip Events Conditions
12:56 AM 64.0 °F 59.0 °F 84% 30.02 in 10.0 mi Calm Calm - N/A   Mostly Cloudy
1:56 AM 64.0 °F 59.0 °F 84% 30.03 in 10.0 mi Calm Calm - N/A   Mostly Cloudy
2:56 AM 64.0 °F 57.9 °F 80% 30.01 in 10.0 mi Calm Calm - N/A   Mostly Cloudy
3:56 AM 63.0 °F 57.9 °F 84% 30.00 in 10.0 mi NNE 3.5 mph - N/A   Mostly Cloudy
4:56 AM 63.0 °F 57.9 °F 84% 29.98 in 10.0 mi Calm Calm - N/A   Mostly Cloudy
5:56 AM 62.1 °F 57.9 °F 86% 29.99 in 10.0 mi North 3.5 mph - N/A   Mostly Cloudy
6:56 AM 63.0 °F 57.0 °F 81% 29.99 in 10.0 mi Calm Calm - N/A   Mostly Cloudy
7:56 AM 62.1 °F 57.9 °F 86% 29.99 in 10.0 mi Calm Calm - N/A   Mostly Cloudy
8:56 AM 64.9 °F 57.0 °F 75% 29.99 in 10.0 mi North 4.6 mph - N/A   Mostly Cloudy
9:56 AM 66.0 °F 55.9 °F 70% 29.97 in 10.0 mi East 5.8 mph - 0.00 in Rain Light Rain
10:56 AM 66.9 °F 55.9 °F 68% 29.98 in 10.0 mi North 3.5 mph - 0.00 in   Overcast
11:56 AM 68.0 °F 55.0 °F 63% 29.96 in 10.0 mi Calm Calm - N/A   Overcast
12:56 PM 70.0 °F 54.0 °F 57% 29.96 in 10.0 mi Calm Calm - N/A   Overcast
1:56 PM 70.0 °F 55.9 °F 61% 29.93 in 10.0 mi East 3.5 mph - 0.00 in Rain Light Rain
2:56 PM 70.0 °F 57.9 °F 65% 29.90 in 10.0 mi Calm Calm - 0.00 in   Overcast
3:56 PM 69.1 °F 57.9 °F 68% 29.89 in 10.0 mi Calm Calm - 0.00 in Rain Light Rain
4:56 PM 68.0 °F 60.1 °F 76% 29.88 in 10.0 mi North 5.8 mph - 0.00 in   Overcast
5:56 PM 66.0 °F 60.1 °F 81% 29.89 in 10.0 mi ESE 3.5 mph - 0.00 in Rain Light Rain
6:56 PM 66.0 °F 59.0 °F 78% 29.88 in 10.0 mi NE 3.5 mph - 0.00 in Rain Light Rain
7:56 PM 64.9 °F 61.0 °F 87% 29.88 in 10.0 mi NNE 3.5 mph - 0.00 in Rain Light Rain
8:56 PM 64.9 °F 60.1 °F 84% 29.87 in 10.0 mi NNE 3.5 mph - 0.00 in   Overcast
9:56 PM 64.9 °F 60.1 °F 84% 29.87 in 10.0 mi NNW 5.8 mph - N/A   Overcast
10:56 PM 64.0 °F 60.1 °F 87% 29.88 in 7.0 mi South 3.5 mph - 0.00 in Rain Light Rain
11:56 PM 64.0 °F 60.1 °F 87% 29.86 in 10.0 mi South 5.8 mph - 0.00 in Rain Light Rain